Location: Baix
(44.7118°N, 4.7648°E)
Time: 16:23:20
(UTC+00:00)

SL-24 R/B - Pass Details

Date: 07 August 2020
Orbit: 717 x 1116 km, 91.9° (Epoch: 22 September)

Event Time Altitude Azimuth Distance (km) Brightness Sun altitude
Exits shadow 01:53:32 45° 161° (SSE) 978 4.7 -22.5°
Maximum altitude 01:55:01 79° 84° (E) 745 4.4 -22.3°
Drops below altitude 10° 02:00:00 10° 358° (N) 2,282 7.7 -21.9°
Sets 02:02:23 0° 357° (N) 3,251 8.6 -21.6°
